Ганчи

Таджикистан     39°57′55″N   69°07′45″E
темп.,
°C
ветер,
м/с
пор.,
м/с
влажн.,
%
обл.,
%
осадки,
мм/ч
давл.,
гПа
погр.,
м
12 августа, пт
пт1223:00+22ююз22311 0.0 101012
02:00+21юз22340 0.0 101014
05:00+19ююз22370 0.0 101011
08:00+24зсз22260 0.0 1011485
11:00+28сз43220 0.0 10101279
14:00+30сз33190 0.0 10081633
17:00+31зсз33170 0.0 10071978
20:00+26юз33230 0.0 100725
13 августа, сб
сб1323:00+25юз33260 0.0 100722
02:00+22юз33280 0.0 100718
05:00+20зюз22300 0.0 100812
08:00+25зсз22250 0.0 1009326
11:00+29ссз32200 0.0 1007957
14:00+32сз32160 0.0 10051605
17:00+33зсз33160 0.0 10041829
20:00+28ююз33220 0.0 100428
14 августа, вс
вс1423:00+26ю22260 0.0 100412
02:00+25юз33270 0.0 100315
05:00+22зсз12300 0.0 100414
08:00+26зсз23230 0.0 1005320
11:00+31сз43180 0.0 1005912
14:00+34сз33150 0.0 10031612
17:00+35зсз33130 0.0 10022247
20:00+29юз33200 0.0 100318
15 августа, пн
пн1523:00+26юз22220 0.0 100311
02:00+25ююз22230 0.0 100211
05:00+23ююз22250 0.0 100311
08:00+30з12170 0.0 1004307
11:00+34ссз33130 0.0 10031343
14:00+37сз44120 0.0 10022547
17:00+37зсз54120 0.0 10013015
20:00+29зюз33180 0.0 100314
16 августа, вт
вт1623:00+28ююз33200 0.0 100423
02:00+26ююз33210 0.0 100414
05:00+24ююз22230 0.0 100512
08:00+29з34190 0.0 1006468
11:00+33сз55160 0.0 10061402
14:00+35зсз55130 0.0 10042512
17:00+35сз66130 0.0 10043143
20:00+27з33180 0.0 100616